Tracking 20945 objects as of 9-Jul-2020
HD Live streaming from Space Station
objects crossing your sky now

COSMOS 1176 FUEL CORE

Track COSMOS 1176 FUEL CORE now!
10-day predictions


NORAD ID: 11971
Int'l Code: 1980-034D
Perigee: 891.8 km
Apogee: 931.8 km
Inclination: 64.8 °
Period: 103.1 minutes
Semi major axis: 7282 km
RCS: 0.1595 m2 (medium)
Launch date: April 29, 1980
Source: Commonwealth of Independent States (former USSR) (CIS)
Launch site: TYURATAM MISSILE AND SPACE COMPLEX (TTMTR)

Note: This is SATELLITE DEBRIS
aabbcc
Your satellite tracking list
Your tracking list is empty




NASA's NSSDC Master Catalog

Two Line Element Set (TLE):
1 11971U 80034D   20190.88604163 -.00000072 +00000-0 +15087-4 0  9997
2 11971 064.8341 097.5879 0027420 177.1557 251.2089 13.96862726042609
Source of the keplerian elements: AFSPC